{"data":{"norad_id":65987,"intl_designator":"2025-230P","name":"SDA_1677","alt_names":[],"object_type":"PAYLOAD","status":"ACTIVE","operator":null,"country":"US","launch_date":"2025-10-15","launch_site_code":"AFWTR","launch_vehicle":null,"mission":null,"orbit_class":"UNKNOWN","rcs_meters":null,"size_class":null,"mass_kg":null,"dimensions":null,"purposes":[],"wikipedia_slug":null,"has_3d_model":false,"image_url":null,"decayed_at":null,"tle_current":{"epoch":"2026-05-25T04:51:10.236384Z","epoch_age_seconds":51475,"freshness":"FRESH","line1":"1 65987U 25230P   26145.20220181  .00000241  00000+0  22599-3 0  9997","line2":"2 65987  81.3004 233.5420 0001112 142.3962 217.7269 13.78595926 30590","mean_motion":13.78595926,"eccentricity":0.0001112,"inclination_deg":81.3004,"raan_deg":233.542,"arg_perigee_deg":142.3962,"mean_anomaly_deg":217.7269,"bstar":0.00022599,"rev_number":3059,"period_min":104.45410238359,"perigee_km":968.05403678702,"apogee_km":969.68801137158,"semimajor_km":7347.0080240793,"source":"CELESTRAK","updated_at":"2026-05-25T13:38:05.880182Z"}}}